Regional Weather Roundup
Issued by NWS

Home | Current Version | Previous Version | Graphics & Text | Print | Product List | Glossary On
Versions: 1 2 3 4 5 6 7 8 9 10 11 12 13 14 15 16 17 18 19 20 21 22 23 24 25 26 27 28 29 30 31 32 33 34 35 36 37 38 39 40 41 42 43 44 45 46 47 48 49 50
000
ASUS43 KIND 271809
RWRIN

WEATHER ROUNDUP FOR INDIANA
NATIONAL WEATHER SERVICE INDIANAPOLIS IN
200 PM EDT FRI MAR 27 2015

NOTE: "FAIR" INDICATES FEW OR NO CLOUDS BELOW 12,000 FEET WITH NO
SIGNIFICANT WEATHER AND/OR OBSTRUCTIONS TO VISIBILITY.

* - STATION DOES NOT REPORT WEATHER SUCH AS PRECIPITATION OR FOG.

+ - STATION NOT QUALITY CONTROLLED BY THE NATIONAL WEATHER SERVICE.
    USE DATA WITH CAUTION...ESPECIALLY DEWPOINT AND RELATIVE
    HUMIDITY OBSERVATIONS.

INZ001>003-010>013-019-020-271900-
NORTHWEST INDIANA

CITY           SKY/WX    TMP DP  RH WIND       PRES   REMARKS
GARY /AIRPORT/ PTSUNNY   30  12  47 NW20G33   30.17S WCI  18
KNOX *+          N/A     30  -4  22 N21       30.11S WCI  17
LA PORTE +     CLOUDY    29  13  51 N18G25    30.13S WCI  17
6HR MIN TEMP:  26; 6HR MAX TEMP:  32;

MICHIGAN CITY+ CLOUDY    28   9  43 N18G26    30.15S WCI  16
MONTICELLO +   CLOUDY    30  16  55 N16       30.11S WCI  19
6HR MIN TEMP:  26; 6HR MAX TEMP:  32;

RENSSELAER +   PTSUNNY   32  18  55 NW15G22   30.13F WCI  22
VALPARAISO     FLURRIES  26  15  63 NE13G22   30.13S WCI  15
6HR MIN TEMP:  24; 6HR MAX TEMP:  30; 6HR PCP: TRACE;


$$

LMZ046-743>745-271900-
SOUTHERN LAKE MICHIGAN

STATION/POSITION TIME  TEMP WIND        PRES
                       AIR  DIR/SP/G
                 (UTC) (F)  (DEG/KT/KT) (MB)
BURNS HARBOR     1800   24  340/ 17/ 24 1021.3S
MICHIGAN CITY    1800   24  360/ 19/ 23   N/A

$$

INZ004-005-014>016-021>024-271900-
NORTH CENTRAL INDIANA

CITY           SKY/WX    TMP DP  RH WIND       PRES   REMARKS
ELKHART        PTSUNNY   28   0  29 N12G24    30.09F WCI  18
GOSHEN         PTSUNNY   29   7  39 N18G26    30.07S WCI  16
6HR MIN TEMP:  23; 6HR MAX TEMP:  30;

LOGANSPORT +   CLOUDY    32  12  43 N17G23    30.09F WCI  21
PERU/GRISSOM   PTSUNNY   30  14  49 NW14G21   30.06F WCI  20
6HR MIN TEMP:  26; 6HR MAX TEMP:  31; 6HR PCP: TRACE;

ROCHESTER +    MOSUNNY   32  18  55 NW16      30.09S WCI  21
SOUTH BEND     PTSUNNY   29   8  41 N21G33    30.11S WCI  16
6HR MIN TEMP:  23; 6HR MAX TEMP:  31; 6HR PCP: TRACE;

WARSAW +       PTSUNNY   30  10  43 NW15G21   30.08R WCI  19

$$

INZ006>009-017-018-025>027-271900-
NORTHEAST INDIANA

CITY           SKY/WX    TMP DP  RH WIND       PRES   REMARKS
ANGOLA *+      PTSUNNY   27   9  46 N10       30.04S WCI  17
AUBURN +       CLOUDY    30   9  40 NW14G21   30.06S WCI  20
FORT WAYNE     PTSUNNY   29  13  51 N17       30.06S WCI  17
6HR MIN TEMP:  26; 6HR MAX TEMP:  30;

HUNTINGTON +   CLOUDY    29  10  44 NW10G16   30.07S WCI  20
6HR MIN TEMP:  26; 6HR MAX TEMP:  30;


$$

INZ028-029-035-036-043>045-051>053-271900-
WEST CENTRAL INDIANA

CITY           SKY/WX    TMP DP  RH WIND       PRES   REMARKS
CRAWFORDSVL +  CLOUDY    31  15  52 MISG      30.10S
6HR MIN TEMP:  27; 6HR MAX TEMP:  32;

GREENCASTLE +  CLOUDY    32  16  51 N10G18    30.09S WCI  24
LAFAYETTE      FLURRIES  30  17  58 N18G24    30.12S WCI  18
6HR MIN TEMP:  27; 6HR MAX TEMP:  31; 6HR PCP: TRACE;

TERRE HAUTE    CLOUDY    34  25  69 N13       30.11S WCI  25
6HR MIN TEMP:  32; 6HR MAX TEMP:  35; 6HR PCP: TRACE;


$$

INZ030>032-037>040-046>048-054>057-064-065-271900-
CENTRAL INDIANA

CITY           SKY/WX    TMP DP  RH WIND       PRES   REMARKS
ANDERSON       CLOUDY    28  16  59 NW12G23   30.08R WCI  18
CP ATTERBURY + CLOUDY    34  23  64 N18       30.08R WCI  23
COLUMBUS       FLURRIES  32  19  59 N16G23    30.07S WCI  21
FISHERS *+     CLOUDY    30  21  69 N9        30.08  WCI  22
FRANKFORT +    MOSUNNY   31  22  68 W13G18    30.11S WCI  21
6HR MIN TEMP:  29; 6HR MAX TEMP:  32;

GREENWOOD *+   CLOUDY    34  18  51 N13       30.08R WCI  25
INDIANAPOLIS   FLURRIES  32  18  56 N14       30.07S WCI  22
6HR MIN TEMP:  31; 6HR MAX TEMP:  33; 6HR PCP: TRACE;

-EAGLE CREEK   CLOUDY    32  16  51 NW17      30.08R WCI  21
6HR MIN TEMP:  30; 6HR MAX TEMP:  33;

KOKOMO *+        N/A     28  18  64 N10G20    30.08S WCI  19
6HR MIN TEMP:  27; 6HR MAX TEMP:  32;

MARION +       CLOUDY    29  15  56 N10G16    30.08S WCI  20
MT COMFORT *+  MOSUNNY   32   9  37 N15       30.07S WCI  22
SHELBYVILLE    CLOUDY    33  22  63 N13       30.06S WCI  24
6HR MIN TEMP:  32; 6HR MAX TEMP:  36;

ZIONSVILLE +   CLOUDY    31  18  58 NW15      30.09S WCI  21
6HR MIN TEMP:  30; 6HR MAX TEMP:  32;


$$

INZ033-034-041-042-049-050-058-059-271900-
EAST CENTRAL INDIANA

CITY           SKY/WX    TMP DP  RH WIND       PRES   REMARKS
MUNCIE         CLOUDY    29  16  58 N14       30.06R WCI  18
6HR MIN TEMP:  28; 6HR MAX TEMP:  31;


$$

INZ060-061-067>069-081>083-085>088-271900-
SOUTHWEST INDIANA

CITY           SKY/WX    TMP DP  RH WIND       PRES   REMARKS
EVANSVILLE     CLOUDY    40  27  59 N13G18    30.10S
6HR MIN TEMP:  36; 6HR MAX TEMP:  43; 6HR PCP: TRACE;

HUNTINGBURG *+ CLOUDY    37  25  60 N15       30.09R
6HR MIN TEMP:  34; 6HR MAX TEMP:  39;

WASHINGTON +   CLOUDY    36  25  64 NW18      30.10S
6HR MIN TEMP:  33; 6HR MAX TEMP:  37;


$$

INZ062-063-066-070>080-084-089>092-271900-
SOUTH CENTRAL AND SOUTHEAST INDIANA

CITY           SKY/WX    TMP DP  RH WIND       PRES   REMARKS
BEDFORD +      CLOUDY    37  19  48 N7G17     30.06F
BLOOMINGTON    FLURRIES  34  23  64 N14G22    30.07S WCI  25
6HR MIN TEMP:  30; 6HR MAX TEMP:  36; 6HR PCP: TRACE;

NORTH VERNON + CLOUDY    36  21  55 N14       30.05S
SEYMOUR +      CLOUDY    37  25  60 N9        30.06S

$$




USA.gov is the U.S. government's official web portal to all federal, state and local government web resources and services.